{"data":{"norad_id":49203,"epoch":"2026-05-24T23:00:00.251136Z","epoch_age_seconds":71853,"freshness":"FRESH","line1":"1 49203U 21083T   26144.95833624  .00000276  00000+0  72136-3 0  9995","line2":"2 49203  87.8937 324.8628 0001809  97.9153 262.2181 13.13468437227864","mean_motion":13.13468437,"eccentricity":0.0001809,"inclination_deg":87.8937,"raan_deg":324.8628,"arg_perigee_deg":97.9153,"mean_anomaly_deg":262.2181,"bstar":0.00072136,"rev_number":22786,"period_min":109.63339197469,"perigee_km":1208.3987668962,"apogee_km":1211.1440721624,"semimajor_km":7587.9084195293,"source":"CELESTRAK","updated_at":"2026-05-25T13:38:22.511614Z"}}